COSMOS 2547 (705K)

Last updated on Tue Sep 16 2025 00:03:19 GMT+0000 (Coordinated Universal Time)

1 46805U 20075A 25257.95603942 .00000015 00000+0 00000+0 0 9990 2 46805 64.5984 201.6589 0008273 238.6456 121.2661 2.13099804 38046
UTC large
Height (km)
Speed (km/s)
/
Latitude / Longitude
Inclination (degrees)
Orbital Period (minutes)
Azimuth
Elevation
Range (km)
Doppler Factor

Next 0 passes for location: London (51.5072 / 0.1276)

Sorry there are no passes over London.